Total_Precipitation_Accumulation
0.11 0.09 0.10 0.13 0.09 0.05 0.02 0.01 0.00 0.00 0.00 0.00 0.01 0.01 0.01 0.02 0.03 0.04 0.05 0.05 0.03 0.05 0.15 0.33 0.50 0.59 0.64 0.65 0.61 0.58 0.57 0.59 0.64 0.67 0.67 0.66 0.67 0.70 0.75 0.77 0.73 0.70 0.68 0.72 0.78 0.82 0.80 0.76 0.71
0.14 0.15 0.17 0.19 0.10 0.04 0.02 0.01 0.00 0.00 0.00 0.00 0.01 0.01 0.02 0.03 0.02 0.03 0.07 0.09 0.05 0.06 0.14 0.25 0.46 0.57 0.63 0.65 0.65 0.67 0.69 0.70 0.75 0.76 0.72 0.68 0.69 0.72 0.76 0.74 0.72 0.70 0.68 0.68 0.70 0.69 0.70 0.62 0.54
0.22 0.27 0.26 0.20 0.09 0.04 0.02 0.01 0.00 0.00 0.00 0.00 0.00 0.01 0.02 0.04 0.04 0.04 0.08 0.11 0.09 0.09 0.15 0.30 0.50 0.61 0.64 0.70 0.71 0.71 0.74 0.79 0.83 0.82 0.80 0.80 0.80 0.78 0.79 0.77 0.73 0.67 0.65 0.65 0.67 0.63 0.61 0.57 0.54
0.34 0.39 0.31 0.17 0.05 0.03 0.02 0.01 0.00 0.00 0.00 0.00 0.01 0.01 0.02 0.03 0.04 0.07 0.11 0.17 0.14 0.14 0.20 0.35 0.53 0.67 0.71 0.75 0.75 0.76 0.79 0.82 0.86 0.83 0.81 0.83 0.90 0.88 0.80 0.75 0.75 0.68 0.64 0.66 0.65 0.62 0.62 0.57 0.52
0.47 0.42 0.30 0.13 0.02 0.01 0.01 0.01 0.01 0.00 0.00 0.01 0.01 0.02 0.04 0.03 0.05 0.10 0.15 0.22 0.23 0.22 0.26 0.40 0.59 0.73 0.80 0.83 0.87 0.90 0.90 0.91 0.89 0.87 0.82 0.82 0.85 0.87 0.83 0.74 0.71 0.67 0.65 0.67 0.67 0.63 0.63 0.61 0.55
0.56 0.44 0.24 0.08 0.02 0.00 0.00 0.00 0.01 0.01 0.01 0.02 0.03 0.03 0.05 0.08 0.10 0.13 0.14 0.20 0.24 0.28 0.34 0.51 0.74 0.84 0.88 0.92 0.90 0.97 1.04 1.05 1.01 0.97 0.91 0.89 0.86 0.83 0.84 0.76 0.73 0.72 0.68 0.64 0.59 0.58 0.57 0.57 0.56
0.62 0.43 0.20 0.06 0.02 0.01 0.01 0.01 0.01 0.01 0.01 0.02 0.03 0.04 0.08 0.13 0.17 0.17 0.17 0.21 0.24 0.29 0.41 0.58 0.81 0.93 1.04 1.06 1.01 1.00 1.02 1.10 1.09 1.04 1.01 0.96 0.90 0.83 0.81 0.78 0.73 0.72 0.73 0.70 0.60 0.57 0.55 0.50 0.49
0.66 0.57 0.26 0.08 0.03 0.02 0.02 0.02 0.02 0.02 0.02 0.02 0.04 0.06 0.08 0.15 0.20 0.24 0.26 0.27 0.31 0.37 0.49 0.65 0.83 0.95 1.06 1.15 1.10 1.05 1.05 1.08 1.14 1.08 1.03 1.01 0.98 0.95 0.86 0.76 0.78 0.75 0.72 0.75 0.70 0.63 0.64 0.58 0.49
0.81 0.75 0.36 0.12 0.06 0.05 0.04 0.04 0.04 0.03 0.04 0.05 0.04 0.06 0.09 0.16 0.23 0.31 0.38 0.42 0.43 0.52 0.64 0.77 0.89 1.01 1.14 1.20 1.15 1.18 1.17 1.20 1.24 1.21 1.18 1.13 1.09 1.08 0.99 0.83 0.79 0.81 0.77 0.74 0.76 0.71 0.70 0.69 0.56
0.90 0.70 0.30 0.12 0.10 0.10 0.07 0.07 0.06 0.06 0.06 0.06 0.07 0.10 0.15 0.25 0.35 0.36 0.39 0.43 0.47 0.55 0.70 0.84 0.94 1.07 1.25 1.32 1.32 1.37 1.29 1.25 1.28 1.18 1.16 1.18 1.15 1.17 1.08 1.01 0.89 0.85 0.85 0.83 0.81 0.80 0.77 0.72 0.61
0.75 0.52 0.25 0.15 0.15 0.16 0.13 0.09 0.08 0.09 0.08 0.08 0.10 0.13 0.20 0.30 0.39 0.42 0.42 0.45 0.48 0.57 0.71 0.86 1.00 1.16 1.33 1.36 1.35 1.35 1.35 1.26 1.30 1.29 1.18 1.15 1.20 1.15 1.17 1.14 1.15 1.07 0.98 0.94 0.93 0.94 0.87 0.79 0.70
0.64 0.42 0.27 0.21 0.20 0.23 0.20 0.16 0.13 0.10 0.08 0.08 0.12 0.15 0.21 0.31 0.36 0.41 0.49 0.55 0.59 0.66 0.77 0.91 1.07 1.26 1.42 1.44 1.46 1.39 1.30 1.24 1.20 1.30 1.32 1.25 1.18 1.09 1.00 1.00 0.99 1.00 0.97 0.96 0.94 0.92 0.88 0.86 0.79
0.61 0.43 0.30 0.23 0.22 0.23 0.23 0.20 0.18 0.11 0.07 0.11 0.15 0.21 0.25 0.30 0.34 0.42 0.53 0.63 0.68 0.73 0.83 0.93 1.08 1.22 1.43 1.64 1.62 1.59 1.44 1.29 1.25 1.29 1.33 1.30 1.23 1.13 1.01 0.92 0.95 0.92 0.87 0.87 0.87 0.80 0.76 0.74 0.72
0.54 0.44 0.35 0.28 0.25 0.24 0.25 0.22 0.22 0.14 0.12 0.17 0.21 0.23 0.29 0.33 0.38 0.47 0.55 0.63 0.71 0.78 0.91 1.01 1.13 1.22 1.37 1.58 1.66 1.65 1.59 1.52 1.47 1.35 1.29 1.31 1.31 1.23 1.12 1.00 0.95 0.93 0.88 0.87 0.82 0.78 0.72 0.67 0.61
0.55 0.58 0.46 0.32 0.27 0.27 0.32 0.31 0.25 0.17 0.20 0.21 0.24 0.26 0.31 0.38 0.41 0.47 0.53 0.63 0.76 0.84 0.97 1.10 1.22 1.34 1.39 1.46 1.66 1.69 1.68 1.62 1.60 1.46 1.41 1.43 1.39 1.36 1.30 1.19 1.05 0.93 0.87 0.86 0.88 0.84 0.79 0.73 0.64
0.75 0.83 0.66 0.36 0.29 0.30 0.45 0.41 0.23 0.22 0.29 0.29 0.29 0.31 0.38 0.45 0.48 0.51 0.55 0.69 0.85 0.90 1.00 1.19 1.31 1.40 1.43 1.41 1.61 1.70 1.74 1.78 1.74 1.69 1.60 1.57 1.55 1.49 1.43 1.38 1.28 1.15 1.02 0.93 0.88 0.84 0.80 0.76 0.69
1.05 0.93 0.63 0.40 0.32 0.38 0.47 0.45 0.29 0.26 0.35 0.37 0.37 0.37 0.42 0.50 0.53 0.57 0.60 0.69 0.80 0.86 1.00 1.22 1.35 1.41 1.47 1.47 1.56 1.73 1.75 1.77 1.84 1.89 1.81 1.74 1.73 1.65 1.55 1.47 1.46 1.46 1.32 1.14 0.98 0.89 0.82 0.76 0.69
1.01 0.74 0.52 0.44 0.36 0.40 0.46 0.41 0.31 0.31 0.37 0.36 0.38 0.39 0.42 0.48 0.50 0.57 0.64 0.74 0.80 0.89 1.05 1.24 1.45 1.53 1.56 1.61 1.61 1.74 1.87 1.74 1.67 1.77 1.82 1.81 1.83 1.77 1.70 1.58 1.50 1.57 1.54 1.42 1.23 1.01 0.93 0.84 0.76
0.70 0.69 0.54 0.41 0.39 0.44 0.44 0.42 0.37 0.33 0.35 0.33 0.29 0.35 0.43 0.44 0.47 0.58 0.66 0.80 0.89 0.97 1.08 1.24 1.42 1.55 1.58 1.60 1.59 1.54 1.66 1.71 1.57 1.48 1.64 1.80 1.89 1.94 1.91 1.77 1.67 1.64 1.60 1.46 1.38 1.26 1.14 1.05 0.94
0.74 0.74 0.58 0.42 0.42 0.52 0.50 0.47 0.38 0.32 0.34 0.31 0.29 0.32 0.41 0.45 0.50 0.56 0.64 0.78 0.86 0.97 1.04 1.20 1.41 1.50 1.48 1.44 1.50 1.51 1.54 1.60 1.62 1.50 1.51 1.64 1.83 1.99 2.14 2.05 1.88 1.76 1.70 1.64 1.51 1.40 1.34 1.27 1.13
0.76 0.65 0.54 0.52 0.54 0.61 0.66 0.62 0.39 0.32 0.31 0.31 0.33 0.35 0.43 0.46 0.50 0.55 0.62 0.72 0.84 0.98 1.03 1.06 1.27 1.52 1.53 1.50 1.61 1.66 1.74 1.77 1.76 1.63 1.49 1.52 1.61 1.71 1.83 1.96 1.85 1.84 1.78 1.73 1.63 1.49 1.42 1.40 1.29
0.72 0.42 0.44 0.55 0.74 0.80 0.72 0.88 0.49 0.33 0.32 0.31 0.35 0.41 0.45 0.48 0.50 0.56 0.62 0.74 0.82 0.97 1.15 1.15 1.20 1.41 1.60 1.59 1.57 1.56 1.62 1.64 1.64 1.56 1.45 1.45 1.55 1.63 1.66 1.76 1.82 1.72 1.65 1.59 1.57 1.53 1.42 1.43 1.42
0.55 0.38 0.46 0.62 0.83 0.86 0.69 0.87 0.57 0.34 0.37 0.31 0.29 0.35 0.39 0.45 0.53 0.59 0.65 0.77 0.89 1.03 1.21 1.30 1.32 1.33 1.50 1.57 1.50 1.47 1.47 1.51 1.61 1.62 1.55 1.48 1.55 1.65 1.70 1.70 1.77 1.81 1.70 1.53 1.46 1.50 1.50 1.46 1.40
0.51 0.59 0.74 0.87 1.16 1.23 0.56 0.59 0.59 0.48 0.48 0.37 0.32 0.36 0.38 0.46 0.57 0.62 0.70 0.83 0.98 1.10 1.26 1.36 1.42 1.33 1.38 1.59 1.56 1.43 1.39 1.39 1.48 1.58 1.67 1.64 1.58 1.62 1.69 1.72 1.67 1.68 1.73 1.69 1.52 1.44 1.48 1.46 1.41
0.81 1.18 1.80 1.93 1.78 1.02 0.32 0.38 0.55 0.45 0.44 0.41 0.39 0.42 0.41 0.46 0.57 0.63 0.72 0.86 0.94 1.05 1.18 1.32 1.36 1.36 1.35 1.49 1.58 1.47 1.37 1.35 1.33 1.38 1.50 1.58 1.60 1.56 1.59 1.65 1.65 1.60 1.59 1.62 1.60 1.52 1.47 1.45 1.45
0.85 1.03 1.41 1.38 0.89 0.43 0.25 0.39 0.47 0.39 0.33 0.33 0.34 0.39 0.40 0.40 0.48 0.57 0.66 0.79 0.88 0.92 1.03 1.19 1.27 1.27 1.30 1.43 1.59 1.59 1.45 1.42 1.30 1.30 1.39 1.45 1.47 1.45 1.43 1.45 1.49 1.45 1.40 1.42 1.49 1.48 1.42 1.43 1.46
0.76 0.79 0.73 0.99 0.66 0.45 0.37 0.35 0.36 0.27 0.24 0.27 0.30 0.34 0.38 0.40 0.45 0.51 0.60 0.66 0.72 0.82 0.91 1.03 1.20 1.29 1.29 1.32 1.50 1.70 1.68 1.52 1.40 1.27 1.32 1.36 1.37 1.40 1.44 1.42 1.39 1.31 1.27 1.26 1.26 1.31 1.29 1.32 1.36
0.67 0.73 0.88 1.24 1.04 0.62 0.37 0.34 0.47 0.38 0.33 0.30 0.31 0.33 0.33 0.38 0.48 0.52 0.55 0.58 0.64 0.74 0.82 0.92 1.09 1.23 1.28 1.27 1.34 1.53 1.76 1.69 1.57 1.51 1.35 1.33 1.33 1.37 1.42 1.43 1.41 1.32 1.22 1.22 1.22 1.18 1.14 1.20 1.23
0.70 0.88 1.06 1.12 0.88 0.76 0.50 0.44 0.50 0.44 0.37 0.34 0.32 0.31 0.32 0.35 0.44 0.48 0.50 0.57 0.62 0.68 0.80 0.90 1.01 1.12 1.18 1.18 1.23 1.33 1.54 1.71 1.72 1.64 1.48 1.33 1.31 1.30 1.28 1.31 1.35 1.31 1.24 1.21 1.26 1.23 1.16 1.18 1.19
0.64 0.76 0.92 1.15 0.87 0.57 0.54 0.47 0.33 0.29 0.30 0.30 0.29 0.29 0.30 0.34 0.37 0.42 0.46 0.55 0.59 0.65 0.76 0.84 0.92 1.06 1.14 1.16 1.19 1.26 1.34 1.48 1.68 1.62 1.47 1.31 1.27 1.29 1.29 1.27 1.28 1.27 1.26 1.24 1.25 1.22 1.17 1.17 1.17